• In Lithuania
  • List of Countries
  • For 7 days
  • Water Temperature
  • Satellite Maps
  • Weather Map
  • Weather Widgets
  • user-avatar
    Login

    Hourly Weather Perth

    Today, 18 December, Monday

    Time Temperature Precipitation Wind Pressure Humidity
    00:00 +15°C° 0.6 mm 8 mps 750 mmHg 71%
    01:00 +15°C° 0.6 mm 7 mps 750 mmHg 71%
    02:00 +14°C° 0 mm 7 mps 750 mmHg 71%
    03:00 +14°C° 0.3 mm 7 mps 750 mmHg 71%
    04:00 +14°C° 0.3 mm 7 mps 750 mmHg 72%
    05:00 +14°C° 0.3 mm 6 mps 750 mmHg 73%
    06:00 +15°C° 0.3 mm 7 mps 750 mmHg 72%
    07:00 +16°C° 0.3 mm 8 mps 751 mmHg 71%
    08:00 +17°C° 0 mm 7 mps 751 mmHg 66%
    09:00 +17°C° 0.5 mm 8 mps 751 mmHg 69%
    10:00 +17°C° 0.5 mm 9 mps 751 mmHg 72%
    11:00 +17°C° 0.5 mm 9 mps 752 mmHg 75%
    12:00 +18°C° 0.4 mm 10 mps 752 mmHg 72%
    13:00 +18°C° 0.4 mm 10 mps 752 mmHg 70%
    14:00 +18°C° 0 mm 10 mps 753 mmHg 70%
    15:00 +18°C° 0.2 mm 10 mps 753 mmHg 70%
    16:00 +18°C° 0.2 mm 9 mps 753 mmHg 70%
    17:00 +18°C° 0.2 mm 9 mps 754 mmHg 71%
    18:00 +18°C° 0.2 mm 8 mps 754 mmHg 73%
    19:00 +17°C° 0.2 mm 7 mps 755 mmHg 75%
    20:00 +17°C° 0.2 mm 7 mps 755 mmHg 77%
    21:00 +17°C° 0.1 mm 6 mps 756 mmHg 78%
    22:00 +16°C° 0.1 mm 6 mps 756 mmHg 79%
    23:00 +16°C° 0.1 mm 6 mps 757 mmHg 81%

    Tomorrow, 19 December, Tuesday

    Time Temperature Precipitation Wind Pressure Humidity
    00:00 +16°C° 0.1 mm 5 mps 757 mmHg 81%
    01:00 +15°C° 0.1 mm 5 mps 757 mmHg 82%
    02:00 +15°C° 0.1 mm 5 mps 757 mmHg 82%
    03:00 +14°C° 0 mm 5 mps 758 mmHg 82%
    04:00 +14°C° 0 mm 5 mps 758 mmHg 82%
    05:00 +13°C° 0 mm 4 mps 758 mmHg 82%
    06:00 +15°C° 0 mm 5 mps 759 mmHg 74%
    07:00 +16°C° 0 mm 5 mps 759 mmHg 66%
    08:00 +17°C° 0 mm 5 mps 760 mmHg 58%
    09:00 +20°C° 0 mm 5 mps 760 mmHg 51%
    10:00 +22°C° 0 mm 5 mps 760 mmHg 45%
    11:00 +23°C° 0 mm 5 mps 760 mmHg 38%
    12:00 +25°C° 0 mm 5 mps 759 mmHg 37%
    13:00 +26°C° 0 mm 5 mps 759 mmHg 35%
    14:00 +27°C° 0 mm 5 mps 759 mmHg 33%
    15:00 +27°C° 0 mm 5 mps 759 mmHg 36%
    16:00 +26°C° 0 mm 6 mps 759 mmHg 38%
    17:00 +26°C° 0 mm 6 mps 759 mmHg 41%
    18:00 +23°C° 0 mm 6 mps 759 mmHg 47%
    19:00 +22°C° 0 mm 5 mps 760 mmHg 54%
    20:00 +20°C° 0 mm 5 mps 760 mmHg 60%
    21:00 +20°C° 0 mm 5 mps 761 mmHg 59%
    22:00 +19°C° 0 mm 4 mps 761 mmHg 59%
    23:00 +19°C° 0 mm 4 mps 761 mmHg 59%

    Day after tomorrow, 20 December, Wednesday

    Time Temperature Precipitation Wind Pressure Humidity
    00:00 +19°C° 0 mm 4 mps 761 mmHg 56%
    01:00 +19°C° 0 mm 4 mps 761 mmHg 53%
    02:00 +19°C° 0 mm 5 mps 761 mmHg 51%
    03:00 +19°C° 0 mm 5 mps 761 mmHg 53%
    04:00 +17°C° 0 mm 5 mps 761 mmHg 55%
    05:00 +17°C° 0 mm 5 mps 762 mmHg 57%
    06:00 +19°C° 0 mm 5 mps 762 mmHg 54%
    07:00 +20°C° 0 mm 5 mps 762 mmHg 51%
    08:00 +22°C° 0 mm 5 mps 762 mmHg 48%
    09:00 +25°C° 0 mm 4 mps 762 mmHg 41%
    10:00 +27°C° 0 mm 3 mps 762 mmHg 34%
    11:00 +30°C° 0 mm 2 mps 761 mmHg 28%
    12:00 +31°C° 0 mm 2 mps 761 mmHg 25%
    13:00 +33°C° 0 mm 3 mps 760 mmHg 23%
    14:00 +35°C° 0 mm 3 mps 760 mmHg 21%
    15:00 +34°C° 0 mm 4 mps 759 mmHg 23%
    16:00 +33°C° 0 mm 4 mps 759 mmHg 25%
    17:00 +33°C° 0 mm 5 mps 759 mmHg 27%
    18:00 +29°C° 0 mm 5 mps 759 mmHg 32%
    19:00 +27°C° 0 mm 5 mps 759 mmHg 37%
    20:00 +25°C° 0 mm 5 mps 759 mmHg 42%
    21:00 +25°C° 0 mm 4 mps 759 mmHg 44%
    22:00 +23°C° 0 mm 4 mps 759 mmHg 47%
    23:00 +22°C° 0 mm 4 mps 759 mmHg 49%

    21 December, Thursday

    Time Temperature Precipitation Wind Pressure Humidity
    00:00 +22°C° 0 mm 4 mps 759 mmHg 43%
    01:00 +22°C° 0 mm 3 mps 758 mmHg 38%
    02:00 +24°C° 0 mm 3 mps 758 mmHg 33%
    03:00 +22°C° 0 mm 3 mps 758 mmHg 33%
    04:00 +22°C° 0 mm 4 mps 758 mmHg 33%
    05:00 +22°C° 0 mm 4 mps 758 mmHg 33%
    06:00 +25°C° 0 mm 4 mps 758 mmHg 30%
    07:00 +27°C° 0 mm 4 mps 758 mmHg 27%
    08:00 +29°C° 0 mm 4 mps 758 mmHg 24%
    09:00 +33°C° 0 mm 3 mps 757 mmHg 21%
    10:00 +36°C° 0 mm 3 mps 757 mmHg 18%
    11:00 +39°C° 0 mm 3 mps 757 mmHg 15%
    12:00 +39°C° 0 mm 3 mps 756 mmHg 14%
    13:00 +41°C° 0 mm 4 mps 755 mmHg 14%
    14:00 +42°C° 0 mm 4 mps 755 mmHg 13%
    15:00 +41°C° 0 mm 4 mps 754 mmHg 15%
    16:00 +40°C° 0 mm 5 mps 754 mmHg 17%
    17:00 +39°C° 0 mm 5 mps 754 mmHg 18%
    18:00 +35°C° 0 mm 4 mps 754 mmHg 23%
    19:00 +33°C° 0 mm 4 mps 754 mmHg 27%
    20:00 +29°C° 0 mm 3 mps 754 mmHg 31%
    21:00 +29°C° 0 mm 3 mps 754 mmHg 31%
    22:00 +28°C° 0 mm 3 mps 754 mmHg 30%
    23:00 +28°C° 0 mm 3 mps 754 mmHg 30%

    22 December, Friday

    Time Temperature Precipitation Wind Pressure Humidity
    00:00 +27°C° 0 mm 3 mps 754 mmHg 33%
    01:00 +26°C° 0 mm 3 mps 753 mmHg 35%
    02:00 +26°C° 0 mm 3 mps 753 mmHg 38%
    03:00 +25°C° 0 mm 3 mps 753 mmHg 41%
    04:00 +25°C° 0 mm 3 mps 753 mmHg 44%
    05:00 +24°C° 0 mm 3 mps 753 mmHg 47%
    06:00 +26°C° 0 mm 3 mps 753 mmHg 45%
    07:00 +27°C° 0 mm 4 mps 754 mmHg 42%
    08:00 +29°C° 0 mm 4 mps 754 mmHg 40%
    09:00 +30°C° 0 mm 5 mps 754 mmHg 37%
    10:00 +33°C° 0 mm 5 mps 754 mmHg 34%
    11:00 +35°C° 0 mm 6 mps 754 mmHg 32%
    12:00 +35°C° 0 mm 6 mps 754 mmHg 31%
    13:00 +35°C° 0 mm 7 mps 753 mmHg 31%
    14:00 +35°C° 0 mm 7 mps 753 mmHg 31%
    15:00 +34°C° 0 mm 7 mps 753 mmHg 35%
    16:00 +32°C° 0 mm 7 mps 754 mmHg 40%
    17:00 +31°C° 0 mm 8 mps 754 mmHg 44%
    18:00 +28°C° 0 mm 7 mps 754 mmHg 49%
    19:00 +27°C° 0 mm 7 mps 755 mmHg 54%
    20:00 +24°C° 0 mm 6 mps 756 mmHg 58%
    21:00 +24°C° 0 mm 6 mps 756 mmHg 59%
    22:00 +23°C° 0 mm 6 mps 757 mmHg 60%
    23:00 +23°C° 0 mm 5 mps 757 mmHg 60%

    23 December, Saturday

    Time Temperature Precipitation Wind Pressure Humidity
    00:00 +22°C° 0 mm 5 mps 757 mmHg 62%
    01:00 +21°C° 0 mm 5 mps 757 mmHg 63%
    02:00 +20°C° 0 mm 5 mps 757 mmHg 65%
    03:00 +20°C° 0 mm 5 mps 757 mmHg 67%
    04:00 +19°C° 0 mm 5 mps 758 mmHg 69%
    05:00 +18°C° 0 mm 4 mps 758 mmHg 70%
    06:00 +19°C° 0 mm 4 mps 758 mmHg 65%
    07:00 +20°C° 0 mm 4 mps 759 mmHg 60%
    08:00 +21°C° 0 mm 4 mps 759 mmHg 55%
    09:00 +25°C° 0 mm 4 mps 759 mmHg 47%
    10:00 +27°C° 0 mm 4 mps 759 mmHg 40%
    11:00 +29°C° 0 mm 4 mps 759 mmHg 32%
    12:00 +30°C° 0 mm 5 mps 758 mmHg 30%
    13:00 +32°C° 0 mm 5 mps 758 mmHg 27%
    14:00 +33°C° 0 mm 6 mps 757 mmHg 25%
    15:00 +33°C° 0 mm 6 mps 757 mmHg 25%
    16:00 +33°C° 0 mm 6 mps 757 mmHg 26%
    17:00 +32°C° 0 mm 6 mps 757 mmHg 27%
    18:00 +30°C° 0 mm 6 mps 758 mmHg 30%
    19:00 +28°C° 0 mm 5 mps 758 mmHg 34%
    20:00 +27°C° 0 mm 5 mps 758 mmHg 37%
    21:00 +26°C° 0 mm 5 mps 759 mmHg 39%
    22:00 +24°C° 0 mm 6 mps 759 mmHg 41%
    23:00 +23°C° 0 mm 6 mps 759 mmHg 44%
    Show more